[[{"header":{"parameterUnit":"m.s-1","parameterCategory":1,"la1":30.2991,"la2":30.254,"lo1":-89.0895,"lo2":-89.0444,"dy":0.0017,"dx":0.0017,"nx":28,"ny":28,"refTime":"2025-07-03T03:00:00:Z","depth":0,"parameterNumber":2,"parameterNumberName":"U-component_of_WINDS"},"data":[0,0,0,0,0,0,0,0,0,0,0,0,0,0,0,0,0,0,0,0,0,0,0,0,0,0,0,0,0,0,0,0,0,0,0,0,0,0,0,0,0,0,0,0,0,0,0,0,0,0,0,0,0,0,0,0,0,0,1.915,1.9152,0,1.9261,1.9262,1.9264,1.9242,1.924,1.9238,1.9236,1.9357,1.9362,1.9367,0,0,0,0,0,0,0,0,0,0,0,0,0,1.8928,1.8932,1.915,1.9152,1.9153,1.9261,1.9262,1.9264,1.9242,1.924,1.9237,1.9235,1.9355,1.9361,1.9367,0,0,0,0,0,0,0,0,0,0,0,0,0,1.903,1.8933,1.915,1.9155,1.9156,1.9261,1.9262,1.9264,1.9243,1.9239,1.9236,1.9234,1.9353,1.936,1.9368,1.9477,0,0,1.9392,1.9395,0,0,0,0,0,0,0,0,1.9025,1.9039,1.9153,1.9155,1.9157,1.9234,1.9228,1.9336,1.9243,1.921,1.9236,1.9232,1.9319,1.9329,1.9357,1.9482,1.9487,1.9392,1.9397,1.94,1.9402,0,0,0,0,0,0,0,1.9018,1.9034,1.9194,1.9155,1.9157,1.9154,1.9165,1.9249,1.9281,1.9213,1.9211,1.9224,1.932,1.935,1.936,1.9489,1.9392,1.9399,1.9404,1.9407,1.9711,1.9714,0,0,0,0,0,0,1.9008,1.9028,1.9191,1.9198,1.9081,1.9161,1.9173,1.9213,1.928,1.9287,1.9227,1.9223,1.9338,1.9351,1.9364,1.9496,1.94,1.9407,1.9412,1.9708,1.9712,1.9716,0,0,0,0,0,0,1.9003,1.9022,1.9186,1.9112,1.9133,1.9168,1.9212,1.9216,1.9246,1.929,1.9296,1.9251,1.9336,1.9353,1.9449,1.95,1.9411,1.9418,1.9703,1.9709,1.9714,1.9761,0,0,0,0,0,0,1.8997,1.9021,1.906,1.9113,1.9137,1.9267,1.9215,1.9221,1.9259,1.9255,1.9315,1.9322,1.9335,1.9437,1.9456,1.9509,1.9424,1.9699,1.9706,1.9712,1.9755,1.9767,1.9777,0,0,0,0,0,1.8989,1.907,1.9062,1.9082,1.9187,1.927,1.9284,1.9295,1.9263,1.9304,1.9333,1.932,1.9491,1.9447,1.9468,1.9524,1.9696,1.9704,1.9712,1.975,1.9764,1.9777,0,0,0,0,0,0,1.9025,1.9077,1.9069,1.917,1.9215,1.9266,1.9318,1.931,1.9367,1.9361,1.9376,1.939,1.9487,1.9515,1.9465,1.9634,1.9589,1.9602,1.9611,1.9626,1.9637,1.9628,1.943,0,0,0,0,0,1.9044,1.9104,1.9148,1.9233,1.9256,1.9283,1.932,1.9325,1.9373,1.9393,1.9428,1.9478,1.9543,1.9586,1.9648,1.9759,1.9773,1.9808,1.9819,1.9828,1.9839,1.9901,1.9917,1.9741,1.9741,1.9741,0,0,1.9085,1.9122,1.9159,1.9241,1.9277,1.9342,1.93,1.937,1.9419,1.9405,1.9496,1.9524,1.9581,1.9685,1.9732,1.9711,1.9891,1.9838,1.9845,1.9851,1.9911,1.9927,1.9942,1.9747,1.9746,1.9745,0,0,1.9193,1.9226,1.9301,1.9337,1.9391,1.9409,1.9427,1.9479,1.9496,1.9588,1.9579,1.9639,1.975,1.9791,1.9827,1.9952,1.9943,1.9972,2.0031,2.0091,2.0105,2.0118,2.0163,2.0179,1.9983,1.9983,1.9983,0,1.9238,1.9333,1.9341,1.9412,1.9449,1.9437,1.9514,1.955,1.9623,1.965,1.9625,1.9765,1.9803,1.9916,1.9947,1.9976,1.9999,1.9965,2.0102,2.0115,2.0126,2.017,2.0187,1.9986,1.9986,1.9985,1.9985,0,1.9386,1.9452,1.9507,1.9574,1.9618,1.9692,1.9714,1.9758,1.9759,1.978,1.9875,1.992,1.9991,2.0019,2.0022,2.0133,2.0119,2.0098,2.0054,2.0146,2.0187,2.0204,1.9991,1.9989,1.9988,1.9988,0,0,1.9519,1.9591,1.9611,1.9642,1.9701,1.9753,1.9828,1.9896,1.9934,1.9985,2.0049,2.0144,2.0125,2.0165,2.0173,2.0226,2.0323,2.0199,2.0201,2.0221,2.0451,2.0466,2.0485,2.0318,2.0321,2.0323,2.0446,0,1.9633,1.9761,1.9771,1.9888,1.9951,1.9941,2.0006,2.0051,2.0074,2.0132,2.0158,2.0225,2.0194,2.0219,2.027,2.03,2.037,2.0292,2.038,2.0383,2.0365,2.0506,2.0523,2.0636,2.0462,2.0465,2.0467,0,1.9782,1.9835,1.9958,2.0009,2.0036,2.0094,2.0157,2.0212,2.0264,2.0277,2.0322,2.0323,2.0403,2.0355,2.0466,2.0413,2.045,2.0471,2.0475,2.0484,2.043,2.052,2.0673,2.069,2.0492,2.049,2.0489,0,1.9868,1.997,2.0057,2.0084,2.0146,2.0187,2.0215,2.0264,2.0304,2.0361,2.0388,2.0454,2.049,2.0543,2.0562,2.0526,2.0673,2.0627,2.0687,2.0687,2.0719,2.0716,2.088,2.0742,2.0742,2.0742,2.0741,0,1.9994,2.0069,2.0096,2.0149,2.0235,2.0247,2.0332,2.0359,2.0402,2.0462,2.0459,2.0516,2.0539,2.0601,2.0617,2.0707,2.0724,2.0738,2.0741,2.0738,2.0736,2.0762,2.0755,2.0746,2.0745,2.0744,2.0744,0,2.0103,2.0124,2.0218,2.0268,2.0283,2.0344,2.0388,2.0441,2.0463,2.0539,2.0558,2.0593,2.0666,2.069,2.0779,2.079,2.0895,2.0892,2.0877,2.0877,2.0936,2.0931,2.1123,2.1149,2.0994,2.0995,2.0996,0,2.0182,2.0239,2.0296,2.0335,2.0364,2.0427,2.0468,2.0484,2.0527,2.0591,2.0636,2.0708,2.0765,2.0883,2.0917,2.0986,2.0984,2.1047,2.0995,2.099,2.0986,2.0982,2.0988,2.1057,2.1058,2.106,2.1061,0,2.0319,2.0327,2.0384,2.0447,2.0495,2.0545,2.0594,2.0627,2.065,2.0699,2.0772,2.0817,2.0906,2.0978,2.1048,2.108,2.1075,2.1077,2.1094,2.1092,2.108,2.1088,2.0904,2.1072,2.1071,2.107,2.107,2.1069,2.0416,2.0467,2.0515,2.058,2.0618,2.0663,2.0715,2.0743,2.0803,2.0876,2.0883,2.0962,2.1014,2.1107,2.1142,2.1206,2.1189,2.1214,2.1221,2.1227,2.1231,2.107,2.1219,2.1219,2.1219,2.1218,2.1218,0,2.0554,2.0584,2.0644,2.0711,2.0763,2.0751,2.0805,2.085,2.0918,2.0967,2.1023,2.1108,2.1178,2.1218,2.1289,2.1332,2.1332,2.135,2.1347,2.1355,2.1243,2.122,2.1349,2.1349,2.1349,2.1349,2.1349,2.1349,2.0631,2.0717,2.0731,2.0837,2.0867,2.0943,2.0974,2.1018,2.1056,2.115,2.1207,2.1232,2.1278,2.1352,2.1416,2.1427,2.1453,2.1473,2.1482,2.1376,2.1363,2.135,2.1329,2.1479,2.1479,2.1589,2.159,2.1591]},{"header":{"parameterUnit":"m.s-1","parameterCategory":1,"la1":30.2991,"la2":30.254,"lo1":-89.0895,"lo2":-89.0444,"dy":0.0017,"dx":0.0017,"nx":28,"ny":28,"refTime":"2025-07-03T03:00:00:Z","depth":0,"parameterNumber":3,"parameterNumberName":"V-component_of_WINDS"},"data":[0,0,0,0,0,0,0,0,0,0,0,0,0,0,0,0,0,0,0,0,0,0,0,0,0,0,0,0,0,0,0,0,0,0,0,0,0,0,0,0,0,0,0,0,0,0,0,0,0,0,0,0,0,0,0,0,0,0,0.2526,0.2527,0,0.255,0.2551,0.2551,0.2424,0.242,0.2417,0.2413,0.2442,0.2446,0.245,0,0,0,0,0,0,0,0,0,0,0,0,0,0.2372,0.2376,0.2526,0.2527,0.2527,0.255,0.2551,0.2551,0.2425,0.242,0.2416,0.2411,0.244,0.2445,0.245,0,0,0,0,0,0,0,0,0,0,0,0,0,0.2422,0.2377,0.2526,0.2467,0.2461,0.255,0.2551,0.2551,0.2426,0.242,0.2415,0.2409,0.2439,0.2445,0.2451,0.2599,0,0,0.247,0.2473,0,0,0,0,0,0,0,0,0.2419,0.2428,0.2475,0.2471,0.2465,0.2478,0.2506,0.2567,0.2427,0.2439,0.2413,0.2407,0.2459,0.2463,0.2479,0.2601,0.2602,0.247,0.2474,0.2477,0.2479,0,0,0,0,0,0,0,0.2416,0.2426,0.2536,0.2476,0.247,0.2439,0.244,0.2517,0.248,0.2438,0.2429,0.2433,0.2455,0.2474,0.2479,0.2602,0.247,0.2476,0.248,0.2482,0.2842,0.2847,0,0,0,0,0,0,0.242,0.2424,0.2535,0.2537,0.2428,0.2446,0.2447,0.248,0.2478,0.2473,0.2438,0.2427,0.2466,0.2472,0.248,0.265,0.2477,0.2483,0.2486,0.2836,0.2843,0.2849,0,0,0,0,0,0,0.2418,0.2431,0.2534,0.2478,0.2488,0.2455,0.2492,0.2483,0.2502,0.2478,0.2471,0.2464,0.2462,0.2471,0.2569,0.2649,0.2486,0.2491,0.2829,0.2838,0.2846,0.2993,0,0,0,0,0,0,0.2414,0.2431,0.2487,0.248,0.2492,0.2623,0.2497,0.2488,0.2513,0.2499,0.2501,0.2496,0.2458,0.256,0.2575,0.2655,0.2496,0.2822,0.2833,0.2843,0.2981,0.3006,0.3027,0,0,0,0,0,0.2409,0.253,0.2491,0.2505,0.2561,0.2628,0.2635,0.2588,0.252,0.2575,0.2559,0.2496,0.2638,0.2572,0.2587,0.267,0.2816,0.283,0.2842,0.2971,0.3001,0.3027,0,0,0,0,0,0,0.255,0.2528,0.2484,0.2607,0.262,0.2607,0.2676,0.2622,0.2657,0.2643,0.2584,0.2585,0.2693,0.2691,0.2617,0.2811,0.2715,0.2732,0.2808,0.2836,0.2859,0.2856,0.2501,0,0,0,0,0,0.2595,0.265,0.2628,0.2739,0.2747,0.2711,0.2738,0.27,0.2712,0.2718,0.2709,0.2724,0.2771,0.2804,0.2847,0.2981,0.2978,0.3045,0.3068,0.3087,0.3102,0.3168,0.3197,0.2892,0.2892,0.2892,0,0,0.2689,0.2684,0.2723,0.2767,0.2772,0.283,0.2716,0.2784,0.2826,0.2728,0.2819,0.2814,0.2826,0.2942,0.2992,0.2944,0.3185,0.3104,0.3119,0.3123,0.3185,0.3214,0.3239,0.2901,0.2899,0.2898,0,0,0.2889,0.2893,0.2982,0.2989,0.2998,0.2973,0.2995,0.2989,0.298,0.307,0.2996,0.3047,0.3131,0.3141,0.3158,0.3359,0.33,0.3375,0.3495,0.356,0.3584,0.3605,0.3673,0.3699,0.339,0.339,0.3391,0,0.3006,0.3089,0.3035,0.3106,0.3126,0.3038,0.3128,0.3138,0.3162,0.3178,0.3123,0.3224,0.3227,0.3341,0.339,0.3408,0.3429,0.3373,0.3585,0.3605,0.3624,0.3688,0.3715,0.3399,0.3398,0.3397,0.3396,0,0.323,0.3289,0.3361,0.3382,0.3411,0.3491,0.3449,0.3484,0.3444,0.3424,0.3515,0.3515,0.3554,0.3579,0.3542,0.3688,0.3656,0.3595,0.3497,0.3663,0.3722,0.3747,0.3412,0.3408,0.3406,0.3404,0,0,0.3521,0.3508,0.3535,0.3542,0.3544,0.3589,0.3665,0.3701,0.3731,0.3751,0.3811,0.3883,0.3824,0.3843,0.3805,0.3864,0.4018,0.3794,0.3793,0.3832,0.4175,0.4219,0.4249,0.398,0.3985,0.3988,0.4173,0,0.3713,0.3839,0.3791,0.3921,0.3973,0.3889,0.3955,0.3963,0.3946,0.3988,0.397,0.402,0.3941,0.3951,0.4005,0.3988,0.4086,0.3974,0.4034,0.4037,0.403,0.428,0.4328,0.4502,0.4196,0.42,0.4203,0,0.3955,0.398,0.4114,0.4103,0.4124,0.4183,0.421,0.4252,0.4259,0.4243,0.4262,0.4211,0.4284,0.4188,0.4286,0.4211,0.4233,0.4228,0.4233,0.4235,0.4128,0.4286,0.4557,0.4582,0.4239,0.4237,0.4234,0,0.4149,0.4217,0.4304,0.4313,0.4304,0.4347,0.4346,0.4347,0.4371,0.4395,0.4409,0.4444,0.4462,0.4489,0.4448,0.4382,0.4551,0.4452,0.4537,0.4538,0.4575,0.4572,0.485,0.4595,0.4594,0.4594,0.4593,0,0.4367,0.4452,0.439,0.4444,0.4535,0.448,0.4572,0.4562,0.4563,0.4613,0.4544,0.4593,0.4537,0.458,0.4549,0.4633,0.4643,0.463,0.462,0.4635,0.4636,0.4646,0.4632,0.4601,0.4599,0.4598,0.4597,0,0.4598,0.4561,0.465,0.4633,0.463,0.4698,0.4683,0.4732,0.4709,0.4773,0.4785,0.475,0.4797,0.4759,0.4806,0.4785,0.4894,0.4869,0.4891,0.4883,0.4968,0.496,0.526,0.5295,0.5021,0.5023,0.5026,0,0.4739,0.4801,0.4789,0.4816,0.4818,0.4864,0.4886,0.4833,0.486,0.487,0.4918,0.4958,0.4987,0.5066,0.5045,0.5079,0.5052,0.5155,0.5057,0.5068,0.505,0.5045,0.5049,0.5175,0.5178,0.518,0.5183,0,0.4991,0.4968,0.5002,0.5029,0.5057,0.5076,0.5091,0.5117,0.5063,0.5096,0.5142,0.5164,0.521,0.525,0.5277,0.5275,0.522,0.5214,0.5234,0.5248,0.5257,0.5249,0.4941,0.5207,0.5204,0.5202,0.5201,0.52,0.5178,0.5227,0.5225,0.5265,0.5269,0.5283,0.5326,0.5308,0.5344,0.5375,0.5343,0.5397,0.54,0.543,0.5435,0.5477,0.5434,0.5465,0.5472,0.548,0.5491,0.5252,0.5482,0.5481,0.5481,0.548,0.5479,0,0.5423,0.5416,0.5453,0.5473,0.5503,0.5447,0.5459,0.5488,0.5536,0.5543,0.5572,0.5623,0.566,0.5642,0.5674,0.5711,0.5686,0.5721,0.5716,0.5716,0.5529,0.5506,0.574,0.574,0.574,0.574,0.574,0.574,0.5553,0.5633,0.561,0.569,0.5683,0.5734,0.5745,0.5757,0.5761,0.582,0.585,0.5837,0.5833,0.5864,0.5896,0.5889,0.5903,0.5947,0.5931,0.5756,0.573,0.5705,0.5683,0.5951,0.5952,0.6114,0.6116,0.6117]}]]